Location: Beadle
(51.4667°N, 109.0000°W)
Time: 10:45:23
(UTC+00:00)

deb Explorer IX - Pass Details

Date: 04 June 2022
Orbit: 535 x 1068 km, 38.8° (Epoch: 04 July)

Event Time Altitude Azimuth Distance (km) Brightness Sun altitude
Rises 19:41:57 0° 262° (W) 3,839 ? 60.5°
Reaches altitude 10° 19:45:55 10° 243° (WSW) 2,839 ? 60.4°
Maximum altitude 19:49:45 16° 209° (SSW) 2,376 ? 60.2°
Drops below altitude 10° 19:53:25 10° 174° (S) 2,683 ? 60.1°
Sets 19:57:02 0° 154° (SSE) 3,522 ? 59.9°
